[[{"header":{"parameterUnit":"m.s-1","parameterCategory":1,"la1":30.2991,"la2":30.254,"lo1":-89.0895,"lo2":-89.0444,"dy":0.0017,"dx":0.0017,"nx":28,"ny":28,"refTime":"2024-10-21T03:00:00:Z","depth":0,"parameterNumber":2,"parameterNumberName":"U-component_of_WINDS"},"data":[0,0,0,0,0,0,0,0,0,0,0,0,0,0,0,0,0,0,0,0,0,0,0,0,0,0,0,0,0,0,0,0,0,0,0,0,0,0,0,0,0,0,0,0,0,0,0,0,0,0,0,0,0,0,0,0,0,0,0.1866,0.1866,0,0.1841,0.184,0.184,0.1771,0.1769,0.1768,0.1766,0.1742,0.1743,0.1744,0,0,0,0,0,0,0,0,0,0,0,0,0,0.1858,0.1859,0.1866,0.1866,0.1866,0.1841,0.184,0.184,0.1771,0.1769,0.1767,0.1765,0.1742,0.1743,0.1744,0,0,0,0,0,0,0,0,0,0,0,0,0,0.185,0.1859,0.1866,0.1828,0.1824,0.1841,0.184,0.184,0.1771,0.1769,0.1767,0.1765,0.1742,0.1743,0.1744,0.1796,0,0,0.1748,0.1748,0,0,0,0,0,0,0,0,0.1851,0.185,0.1834,0.1831,0.1827,0.1806,0.1829,0.1825,0.1772,0.1792,0.1766,0.1763,0.1766,0.1765,0.1765,0.1795,0.1794,0.1748,0.1748,0.1749,0.1749,0,0,0,0,0,0,0,0.1851,0.1851,0.1856,0.1834,0.1829,0.1813,0.1809,0.1828,0.1792,0.179,0.1784,0.1782,0.1763,0.1764,0.1764,0.1794,0.1748,0.1749,0.1749,0.175,0.1865,0.1868,0,0,0,0,0,0,0.1857,0.1852,0.1857,0.1855,0.1833,0.1815,0.1811,0.1815,0.1791,0.1785,0.1784,0.1779,0.1763,0.1763,0.1763,0.1822,0.1749,0.175,0.1751,0.1863,0.1866,0.1868,0,0,0,0,0,0,0.1857,0.1858,0.1858,0.1852,0.1851,0.1817,0.1823,0.1816,0.1816,0.1787,0.1781,0.1791,0.1761,0.1761,0.1788,0.182,0.1751,0.1752,0.186,0.1864,0.1867,0.1941,0,0,0,0,0,0,0.1857,0.1858,0.1877,0.1853,0.1852,0.1884,0.1825,0.1817,0.1818,0.1811,0.1792,0.1787,0.176,0.1787,0.1789,0.1821,0.1752,0.1857,0.1862,0.1866,0.1936,0.1947,0.1956,0,0,0,0,0,0.1857,0.19,0.1879,0.188,0.1874,0.1885,0.1885,0.1852,0.1821,0.184,0.1821,0.1787,0.1816,0.179,0.1792,0.1825,0.1855,0.186,0.1866,0.1931,0.1945,0.1956,0,0,0,0,0,0,0.193,0.1896,0.1872,0.1908,0.19,0.1874,0.1897,0.1867,0.1868,0.1862,0.1822,0.1818,0.1851,0.184,0.1812,0.1874,0.183,0.1836,0.1879,0.1892,0.1902,0.1904,0.1753,0,0,0,0,0,0.195,0.1961,0.1931,0.1966,0.1963,0.1931,0.1934,0.191,0.19,0.1896,0.1879,0.1872,0.1879,0.1885,0.189,0.1934,0.1929,0.1957,0.1967,0.1976,0.1982,0.2004,0.2016,0.1886,0.1886,0.1886,0,0,0.1992,0.1975,0.1984,0.198,0.1971,0.1984,0.1928,0.1944,0.1954,0.1899,0.1923,0.1911,0.19,0.1935,0.195,0.1928,0.2017,0.1983,0.199,0.1991,0.2011,0.2023,0.2034,0.189,0.1889,0.1888,0,0,0.2075,0.2063,0.209,0.2082,0.2068,0.2047,0.2053,0.2031,0.202,0.2044,0.2003,0.2014,0.2027,0.2021,0.202,0.21,0.2069,0.2103,0.2157,0.218,0.219,0.2199,0.2228,0.2238,0.2109,0.2109,0.2109,0,0.2129,0.2146,0.2109,0.2127,0.2127,0.2077,0.2105,0.2099,0.2088,0.2089,0.2064,0.2079,0.2069,0.2102,0.2122,0.2122,0.2129,0.2105,0.2191,0.22,0.2208,0.2235,0.2246,0.2114,0.2113,0.2113,0.2112,0,0.2213,0.2226,0.225,0.2239,0.2241,0.2265,0.2232,0.2239,0.2214,0.2195,0.222,0.2205,0.2206,0.2212,0.2189,0.2243,0.2229,0.2198,0.2154,0.2225,0.225,0.226,0.212,0.2118,0.2117,0.2116,0,0,0.2341,0.231,0.2319,0.2314,0.2295,0.2304,0.2326,0.2326,0.2332,0.2327,0.2344,0.2356,0.2327,0.2326,0.2301,0.2321,0.2386,0.2287,0.2286,0.2306,0.2444,0.2467,0.248,0.2365,0.2367,0.2368,0.2445,0,0.2419,0.2453,0.242,0.246,0.2471,0.2424,0.2443,0.2434,0.2417,0.2424,0.2406,0.2415,0.2376,0.2375,0.2393,0.2374,0.2413,0.2368,0.2381,0.2382,0.2385,0.2493,0.2517,0.2591,0.2455,0.2456,0.2457,0,0.2515,0.2512,0.2554,0.2532,0.2535,0.2553,0.255,0.2558,0.2547,0.2533,0.2531,0.2501,0.2521,0.2477,0.2504,0.2475,0.2478,0.247,0.2472,0.2472,0.2424,0.2496,0.2613,0.2624,0.2472,0.2471,0.247,0,0.2604,0.2611,0.2637,0.2634,0.2609,0.2622,0.2613,0.2599,0.2601,0.26,0.2601,0.2602,0.2602,0.2604,0.2575,0.2546,0.2606,0.256,0.2596,0.2596,0.261,0.261,0.273,0.2613,0.2613,0.2613,0.2612,0,0.2694,0.2722,0.2676,0.2692,0.2721,0.2684,0.2714,0.2699,0.2688,0.2701,0.266,0.2673,0.2634,0.2643,0.262,0.2646,0.2647,0.2637,0.263,0.264,0.2642,0.2642,0.2636,0.2615,0.2615,0.2614,0.2614,0,0.2799,0.277,0.2794,0.2768,0.2763,0.2785,0.2764,0.2778,0.2758,0.2774,0.2776,0.2746,0.2754,0.2725,0.2729,0.2714,0.2752,0.2738,0.2756,0.2751,0.2788,0.2785,0.2912,0.2927,0.2801,0.2803,0.2804,0,0.2858,0.2878,0.2854,0.2859,0.2851,0.286,0.2862,0.2826,0.283,0.2819,0.2834,0.2839,0.2841,0.2857,0.2835,0.2838,0.2823,0.2868,0.2824,0.2833,0.2824,0.2823,0.2824,0.2877,0.2879,0.288,0.2881,0,0.2967,0.2951,0.2955,0.2953,0.2956,0.2954,0.2949,0.2955,0.2917,0.2923,0.2931,0.2932,0.2936,0.2942,0.294,0.2931,0.29,0.2895,0.2903,0.2913,0.2923,0.2918,0.278,0.2892,0.2891,0.289,0.289,0.2889,0.305,0.3065,0.305,0.3056,0.3048,0.3044,0.3056,0.3037,0.3043,0.3042,0.3021,0.3033,0.3021,0.3016,0.301,0.3019,0.2998,0.3011,0.3014,0.3017,0.3023,0.2922,0.3019,0.3019,0.3018,0.3018,0.3018,0,0.3156,0.3144,0.3149,0.3143,0.3147,0.3117,0.311,0.3116,0.3126,0.3118,0.312,0.3129,0.3135,0.3114,0.3116,0.3128,0.3114,0.3129,0.3128,0.3126,0.3042,0.3034,0.3141,0.3141,0.3141,0.3141,0.3141,0.3141,0.3211,0.3235,0.3218,0.3238,0.3226,0.3236,0.3235,0.3231,0.3224,0.3236,0.3239,0.3225,0.3212,0.3213,0.3217,0.3211,0.3213,0.3234,0.3223,0.3144,0.3132,0.3121,0.3114,0.3235,0.3235,0.3307,0.3307,0.3308]},{"header":{"parameterUnit":"m.s-1","parameterCategory":1,"la1":30.2991,"la2":30.254,"lo1":-89.0895,"lo2":-89.0444,"dy":0.0017,"dx":0.0017,"nx":28,"ny":28,"refTime":"2024-10-21T03:00:00:Z","depth":0,"parameterNumber":3,"parameterNumberName":"V-component_of_WINDS"},"data":[0,0,0,0,0,0,0,0,0,0,0,0,0,0,0,0,0,0,0,0,0,0,0,0,0,0,0,0,0,0,0,0,0,0,0,0,0,0,0,0,0,0,0,0,0,0,0,0,0,0,0,0,0,0,0,0,0,0,-1.3123,-1.3124,0,-1.326,-1.3261,-1.3263,-1.3345,-1.3346,-1.3346,-1.3347,-1.3486,-1.3489,-1.3492,0,0,0,0,0,0,0,0,0,0,0,0,0,-1.2933,-1.2936,-1.3122,-1.3124,-1.3126,-1.3259,-1.3261,-1.3263,-1.3345,-1.3346,-1.3346,-1.3347,-1.3485,-1.3488,-1.3492,0,0,0,0,0,0,0,0,0,0,0,0,0,-1.3037,-1.2937,-1.3122,-1.3183,-1.319,-1.3259,-1.3261,-1.3264,-1.3345,-1.3346,-1.3347,-1.3347,-1.3483,-1.3488,-1.3493,-1.3512,0,0,-1.3508,-1.351,0,0,0,0,0,0,0,0,-1.3031,-1.3044,-1.3172,-1.3179,-1.3187,-1.3286,-1.3246,-1.3347,-1.3345,-1.3286,-1.3347,-1.3347,-1.3419,-1.3429,-1.3453,-1.3518,-1.3524,-1.3509,-1.3512,-1.3514,-1.3515,0,0,0,0,0,0,0,-1.3024,-1.3038,-1.3177,-1.3174,-1.3183,-1.3204,-1.3219,-1.3265,-1.3347,-1.3291,-1.3298,-1.3313,-1.3423,-1.3448,-1.3457,-1.3526,-1.3509,-1.3513,-1.3516,-1.3518,-1.3617,-1.3616,0,0,0,0,0,0,-1.3007,-1.3032,-1.3172,-1.3181,-1.3109,-1.3207,-1.3224,-1.3254,-1.3347,-1.3362,-1.3312,-1.3316,-1.3439,-1.3451,-1.3462,-1.3492,-1.3514,-1.3518,-1.3521,-1.3617,-1.3617,-1.3616,0,0,0,0,0,0,-1.3002,-1.3019,-1.3167,-1.3108,-1.3129,-1.3209,-1.3242,-1.3256,-1.3282,-1.3363,-1.3378,-1.3323,-1.344,-1.3455,-1.35,-1.3498,-1.3521,-1.3525,-1.3618,-1.3617,-1.3616,-1.3551,0,0,0,0,0,0,-1.2997,-1.3016,-1.3024,-1.3108,-1.3131,-1.3201,-1.3242,-1.3258,-1.329,-1.3297,-1.3377,-1.3391,-1.3442,-1.3492,-1.3505,-1.3506,-1.3529,-1.3618,-1.3617,-1.3617,-1.3554,-1.3548,-1.3544,0,0,0,0,0,-1.299,-1.2999,-1.3024,-1.304,-1.3142,-1.3201,-1.3214,-1.3273,-1.329,-1.3298,-1.3351,-1.3388,-1.3496,-1.3496,-1.3511,-1.3513,-1.3618,-1.3617,-1.3617,-1.3556,-1.3549,-1.3544,0,0,0,0,0,0,-1.2911,-1.3011,-1.304,-1.3076,-1.313,-1.3215,-1.3227,-1.3264,-1.3313,-1.3317,-1.3388,-1.3406,-1.3443,-1.3483,-1.348,-1.3538,-1.3562,-1.3564,-1.351,-1.3505,-1.35,-1.349,-1.3533,0,0,0,0,0,-1.2899,-1.2938,-1.3023,-1.3047,-1.3072,-1.3145,-1.3172,-1.3214,-1.3272,-1.3294,-1.335,-1.3405,-1.3452,-1.348,-1.3528,-1.356,-1.358,-1.357,-1.3565,-1.356,-1.3561,-1.3584,-1.3581,-1.3614,-1.3614,-1.3614,0,0,-1.2872,-1.2931,-1.2951,-1.3033,-1.3079,-1.3119,-1.3163,-1.3202,-1.3233,-1.33,-1.3346,-1.3389,-1.3455,-1.3494,-1.3514,-1.3528,-1.3557,-1.3559,-1.3555,-1.3559,-1.3583,-1.358,-1.3577,-1.3613,-1.3613,-1.3613,0,0,-1.2844,-1.2893,-1.2919,-1.2965,-1.3035,-1.3084,-1.3091,-1.3171,-1.3203,-1.325,-1.3302,-1.334,-1.3418,-1.3463,-1.3497,-1.349,-1.3527,-1.3503,-1.3477,-1.3499,-1.3496,-1.3494,-1.3493,-1.3492,-1.3504,-1.3504,-1.3504,0,-1.2802,-1.2864,-1.2928,-1.2966,-1.3001,-1.3065,-1.3093,-1.3135,-1.3216,-1.3239,-1.3254,-1.3356,-1.3405,-1.3456,-1.3455,-1.348,-1.349,-1.3494,-1.3491,-1.349,-1.3489,-1.3489,-1.3489,-1.3501,-1.3501,-1.3502,-1.3502,0,-1.281,-1.2852,-1.2865,-1.2944,-1.2981,-1.3013,-1.3083,-1.3112,-1.3151,-1.3199,-1.3248,-1.3309,-1.3371,-1.3386,-1.3424,-1.3445,-1.3452,-1.3478,-1.3503,-1.3482,-1.3483,-1.3483,-1.3496,-1.3497,-1.3498,-1.3499,0,0,-1.2734,-1.2851,-1.2854,-1.2892,-1.2976,-1.301,-1.3046,-1.3108,-1.3133,-1.3187,-1.322,-1.3287,-1.3313,-1.3351,-1.3394,-1.3413,-1.3406,-1.3438,-1.3441,-1.3431,-1.3435,-1.3415,-1.3414,-1.3432,-1.3432,-1.3432,-1.343,0,-1.2719,-1.2788,-1.2848,-1.2895,-1.2936,-1.3,-1.3032,-1.3087,-1.3133,-1.3175,-1.3226,-1.3273,-1.3303,-1.3327,-1.3348,-1.3402,-1.3408,-1.3403,-1.3464,-1.3465,-1.3446,-1.3415,-1.3393,-1.3388,-1.3431,-1.3431,-1.3431,0,-1.271,-1.2764,-1.2815,-1.2898,-1.2917,-1.2945,-1.3008,-1.3047,-1.3112,-1.3144,-1.3188,-1.3235,-1.3278,-1.3299,-1.336,-1.3356,-1.3384,-1.3415,-1.3417,-1.3425,-1.3447,-1.3422,-1.3387,-1.3387,-1.3432,-1.3432,-1.3432,0,-1.2651,-1.2737,-1.2779,-1.2809,-1.2906,-1.2925,-1.2966,-1.3031,-1.3066,-1.3121,-1.3144,-1.3203,-1.3236,-1.3281,-1.3343,-1.3353,-1.3398,-1.3424,-1.3427,-1.3425,-1.3433,-1.3432,-1.3403,-1.345,-1.3451,-1.3451,-1.3451,0,-1.2628,-1.2657,-1.2755,-1.278,-1.2816,-1.2886,-1.2919,-1.2966,-1.3024,-1.3061,-1.312,-1.3153,-1.3233,-1.3277,-1.3325,-1.3369,-1.3383,-1.3412,-1.3424,-1.3407,-1.3403,-1.3426,-1.3428,-1.345,-1.345,-1.345,-1.345,0,-1.2568,-1.2634,-1.2685,-1.2773,-1.2796,-1.2819,-1.2895,-1.2923,-1.2974,-1.302,-1.3035,-1.3115,-1.3169,-1.3236,-1.3311,-1.3345,-1.3384,-1.3403,-1.3362,-1.337,-1.3369,-1.3369,-1.3355,-1.3357,-1.3402,-1.3401,-1.3401,0,-1.2548,-1.2573,-1.2665,-1.2695,-1.2734,-1.2781,-1.2817,-1.2888,-1.2923,-1.3001,-1.302,-1.308,-1.3131,-1.3215,-1.328,-1.3339,-1.336,-1.3351,-1.3369,-1.3352,-1.3362,-1.336,-1.3363,-1.3346,-1.3345,-1.3345,-1.3344,0,-1.2508,-1.2541,-1.259,-1.2653,-1.2695,-1.2747,-1.2801,-1.2822,-1.2904,-1.2941,-1.2999,-1.3039,-1.3118,-1.3176,-1.3244,-1.3288,-1.333,-1.3338,-1.3342,-1.3324,-1.3301,-1.3315,-1.335,-1.3338,-1.3339,-1.3339,-1.3339,-1.334,-1.2469,-1.2494,-1.2564,-1.2618,-1.2668,-1.2718,-1.275,-1.2806,-1.2855,-1.2925,-1.2964,-1.3021,-1.3089,-1.3184,-1.3226,-1.3273,-1.3288,-1.3293,-1.3294,-1.3295,-1.329,-1.3293,-1.3285,-1.3285,-1.3286,-1.3286,-1.3286,0,-1.2432,-1.2481,-1.2531,-1.2606,-1.265,-1.2687,-1.2751,-1.2785,-1.2834,-1.2894,-1.2944,-1.3011,-1.3069,-1.314,-1.3203,-1.3227,-1.3248,-1.3241,-1.324,-1.325,-1.3272,-1.3263,-1.3223,-1.3223,-1.3223,-1.3223,-1.3223,-1.3223,-1.2418,-1.2464,-1.2506,-1.2578,-1.2627,-1.2683,-1.2716,-1.2764,-1.2812,-1.2885,-1.2934,-1.298,-1.3045,-1.3114,-1.317,-1.319,-1.3211,-1.3198,-1.3223,-1.3243,-1.3248,-1.3253,-1.3245,-1.3202,-1.3202,-1.3197,-1.3197,-1.3197]}]]